This is the latest recevied weather packets stored in our database for station/object SQ7KHZ-10. If no packets are shown the sender has not sent any weather packets the latest 10 day(s).
| Time | Temp. | Humidity | Pressure | Rain* | Wind** | Luminosity | Snow |
|---|---|---|---|---|---|---|---|
| 1777797350 | 22.22° C | 47% | 1018.5 hPa | 0 mm | - | - | - |
| 1777796138 | 21.11° C | 41% | 1018.4 hPa | 0 mm | - | - | - |
| 1777794937 | 21.11° C | 46% | 1018.4 hPa | 0 mm | - | - | - |
| 1777793725 | 20° C | 46% | 1018.6 hPa | 0 mm | - | - | - |
| 1777792515 | 18.89° C | 50% | 1018.6 hPa | 0 mm | - | - | - |
| 1777791304 | 18.33° C | 50% | 1018.5 hPa | 0 mm | - | - | - |
| 1777790095 | 17.22° C | 57% | 1018.7 hPa | 0 mm | - | - | - |
| 1777788888 | 15.56° C | 61% | 1018.5 hPa | 0 mm | - | - | - |
| 1777787679 | 14.44° C | 63% | 1018.5 hPa | 0 mm | - | - | - |
| 1777786472 | 11.67° C | 70% | 1018.7 hPa | 0 mm | - | - | - |
| 1777785267 | 10.56° C | 76% | 1018.8 hPa | 0 mm | - | - | - |
| 1777784064 | 9.44° C | 79% | 1018.9 hPa | 0 mm | - | - | - |
| 1777782860 | 8.33° C | 84% | 1018.9 hPa | 0 mm | - | - | - |
| 1777781660 | 7.78° C | 84% | 1018.8 hPa | 0 mm | - | - | - |
| 1777780460 | 6.67° C | 85% | 1018.8 hPa | 0 mm | - | - | - |
| 1777779260 | 6.11° C | 87% | 1018.8 hPa | 0 mm | - | - | - |
| 1777778048 | 6.67° C | 86% | 1018.9 hPa | 0 mm | - | - | - |
| 1777776848 | 6.67° C | 83% | 1018.9 hPa | 0 mm | - | - | - |
| 1777775636 | 6.67° C | 85% | 1018.9 hPa | 0 mm | - | - | - |
| 1777774424 | 7.22° C | 84% | 1018.9 hPa | 0 mm | - | - | - |
| 1777773224 | 6.67° C | 84% | 1018.9 hPa | 0 mm | - | - | - |
| 1777772012 | 6.67° C | 86% | 1019 hPa | 0 mm | - | - | - |
| 1777770800 | 6.67° C | 87% | 1018.9 hPa | 0 mm | - | - | - |
| 1777769588 | 6.67° C | 87% | 1018.9 hPa | 0 mm | - | - | - |
| 1777768376 | 7.22° C | 87% | 1019.1 hPa | 0 mm | - | - | - |
* Rain latest hour (hover to see other rain measurements)
** Current wind speed in m/s (hover to see current wind gust speed)